Regional Weather Roundup
Issued by NWS

Home | Current Version | Previous Version | Graphics & Text | Print | Product List | Glossary On
Versions: 1 2 3 4 5 6 7 8 9 10 11 12 13 14 15 16 17 18 19 20 21 22 23 24 25 26 27 28 29 30 31 32 33 34 35 36 37 38 39 40 41 42 43 44 45 46 47 48
000
ASUS45 KBOI 031710
RWRID
WEATHER ROUNDUP FOR IDAHO
NATIONAL WEATHER SERVICE BOISE ID
1100 AM MDT SUN MAY 03 2015

NOTE: "FAIR" INDICATES FEW OR NO CLOUDS BELOW 12000 FEET
WITH NO SIGNIFICANT WEATHER AND/OR OBSTRUCTIONS TO VISIBILITY

IDZ012-014-031800-
SOUTHWEST IDAHO


CITY           SKY/WX    TMP DP  RH WIND       PRES   REMARKS
BOISE          SUNNY     59  34  39 CALM      29.90S
CALDWELL       SUNNY     63  34  34 NW7       29.92R
MOUNTAIN HOME  MOSUNNY   63  31  29 VRB7      29.90R
$$

IDZ016-017-031800-
SOUTHCENTRAL IDAHO


CITY           SKY/WX    TMP DP  RH WIND       PRES   REMARKS
BURLEY         SUNNY     65  31  28 CALM      29.92S
JEROME         SUNNY     61  29  29 W7        29.94R
TWIN FALLS     SUNNY     66  31  27 NW8       29.93S
$$

IDZ019>023-031800-
SOUTHEAST IDAHO


CITY           SKY/WX    TMP DP  RH WIND       PRES   REMARKS
IDAHO FALLS    PTSUNNY   64  36  35 SW9       29.96S
POCATELLO      MOSUNNY   68  34  28 N3        29.95S
REXBURG        PTSUNNY   62  35  36 SW13      29.96R
$$

IDZ006-010-011-018-031-032-031800-
CENTRAL IDAHO MOUNTAINS


CITY           SKY/WX    TMP DP  RH WIND       PRES   REMARKS
MCCALL         SUNNY     55  32  41 CALM      29.94R
HAILEY         PTSUNNY   63  36  36 NW12      29.98R
STANLEY          N/A     52  30  43 S16       30.02R
SALMON         SUNNY     54  28  37 CALM      29.94F
CHALLIS        MOSUNNY   57  23  26 CALM      29.95F
$$

IDZ002-004-006-007-026-031800-
NORTHERN IDAHO


CITY           SKY/WX    TMP DP  RH WIND       PRES   REMARKS
LEWISTON       SUNNY     57  34  41 CALM      29.98S
LOWELL           N/A     54  33  45 CALM      29.98F
COEUR D`ALENE  SUNNY     55  27  33 NE17      30.02F
MULLAN PASS    SUNNY     45  17  32 VRB3      30.01S
$$



USA.gov is the U.S. government's official web portal to all federal, state and local government web resources and services.